Theta_e
319 320 320 320 320 320 320 320 320 319 319 318 318 319 319 319 319 320 319 319 318 317 317 317 318 319 319 320 320 320 320 320 320 320 319 318 318 317 316 316 315 315
318 318 318 318 318 318 318 318 318 318 318 319 319 319 319 319 319 319 318 318 318 317 316 316 316 316 316 317 317 317 317 318 318 318 317 317 317 316 316 316 315 314
317 317 316 316 316 317 317 317 318 318 318 318 317 317 317 317 317 317 317 316 316 316 316 316 315 315 315 314 314 314 314 315 315 315 315 315 315 315 314 314 314 313
316 316 315 315 315 316 317 317 317 317 316 316 315 314 314 313 313 313 313 313 314 314 314 314 314 314 314 314 313 313 313 313 313 312 312 312 312 312 312 312 312 312
316 315 315 315 315 314 314 314 314 314 314 313 312 312 312 311 311 311 311 311 311 311 312 312 312 312 312 313 313 313 313 312 312 311 311 310 310 310 311 311 311 310
313 313 313 313 312 312 311 311 311 311 310 310 310 311 310 310 310 310 310 310 310 310 310 310 310 310 310 311 311 311 311 311 311 311 310 310 309 309 309 309 309 308
310 310 310 310 310 309 310 309 309 309 309 309 309 309 309 308 308 308 308 309 309 308 308 309 309 309 309 309 309 310 309 309 309 309 309 309 309 309 309 308 308 308
309 309 309 309 309 308 308 308 308 308 308 308 307 307 307 307 307 307 307 307 307 307 307 307 307 307 308 308 308 308 308 307 307 308 308 308 308 308 308 307 307 307
308 308 308 307 307 307 307 307 307 307 307 307 306 306 306 306 306 306 306 306 306 306 306 306 306 306 307 307 306 306 306 306 306 306 306 307 306 306 306 306 305 305
307 307 307 307 306 306 306 306 306 306 306 306 305 305 305 305 305 305 305 305 305 305 305 305 305 305 305 305 304 304 304 303 303 303 303 304 304 304 304 304 304 303
307 306 306 306 305 305 305 305 305 305 305 305 304 304 304 304 304 304 304 304 304 304 304 303 303 303 303 303 303 302 302 302 301 301 301 301 301 301 301 301 301 301
306 305 305 304 304 304 304 304 304 304 304 304 304 304 304 304 304 303 303 303 303 303 302 302 301 301 301 301 301 301 301 301 300 300 299 299 299 299 299 299 299 299
303 302 302 302 303 303 303 303 303 303 303 303 303 302 302 302 301 301 301 301 301 300 300 300 300 299 300 300 299 299 299 299 299 299 299 299 299 299 298 298 298 298
301 301 302 302 302 302 302 302 302 302 301 301 300 300 299 299 299 298 298 298 298 298 297 297 297 297 298 298 298 298 298 298 298 298 298 298 298 298 298 298 298 298
301 301 301 301 301 300 300 300 300 299 299 298 298 297 297 296 296 296 296 296 296 296 295 295 295 296 296 296 296 297 297 297 297 297 297 297 297 297 297 297 297 297
300 300 300 299 299 298 298 297 297 297 296 296 296 296 295 295 295 295 295 295 294 294 294 294 294 294 294 294 295 295 295 295 295 295 295 295 296 295 295 295 295 295
298 298 298 297 297 296 296 296 296 296 295 295 295 295 295 295 294 294 294 294 294 293 293 293 293 293 293 293 293 294 293 294 294 294 294 294 294 294 294 294 294 294
297 297 296 296 296 295 295 295 295 295 295 295 295 294 294 294 294 293 293 293 293 293 293 293 293 293 293 293 293 293 293 293 293 293 293 293 293 293 293 293 294 294
296 296 295 295 295 295 295 294 294 294 294 294 294 293 293 293 293 293 293 293 293 293 293 293 293 292 292 292 292 292 292 292 292 292 292 292 292 292 292 292 292 293
295 295 295 294 294 294 294 293 293 293 293 293 293 293 293 293 293 293 293 292 292 292 292 292 292 292 291 291 291 291 291 291 291 291 291 290 290 291 291 291 291 291
294 294 294 293 293 293 293 293 293 293 293 293 293 293 293 293 292 292 292 292 291 291 291 291 290 290 290 290 290 290 290 290 290 290 290 289 289 289 290 290 290 290
293 293 293 293 293 292 292 292 292 292 292 293 292 292 292 292 291 291 290 290 290 290 289 289 289 289 289 289 289 289 289 289 289 289 289 289 289 289 289 289 289 289
292 292 292 292 292 292 292 292 292 292 292 292 291 291 291 290 290 289 289 289 289 289 289 289 289 289 289 289 289 289 289 289 289 289 289 289 288 288 288 288 289 289
292 292 292 292 292 292 292 292 291 291 290 290 289 289 289 289 289 288 288 288 288 288 288 288 288 288 288 288 288 288 288 288 288 288 288 288 288 288 288 288 288 288
291 291 292 292 292 291 291 291 290 290 289 289 288 288 288 288 288 288 288 288 288 288 288 288 288 288 288 288 288 288 288 288 288 288 288 288 288 288 288 288 288 288
291 291 291 291 291 290 290 289 289 289 288 288 288 287 287 287 287 287 288 288 288 288 287 287 287 287 287 287 287 287 287 287 287 288 288 288 288 288 288 288 288 288
Wind_Speed
16 15 15 14 14 13 12 11 11 10 9 9 8 8 8 8 9 10 11 12 13 14 14 15 15 15 16 18 19 20 20 21 23 24 24 26 27 27 28 29 29 30
15 14 14 13 12 11 10 9 9 8 7 7 7 8 8 9 9 9 9 10 12 14 15 16 16 16 15 15 16 17 18 19 19 20 21 22 24 25 27 28 28 29
12 11 10 9 8 7 6 6 6 7 8 9 10 11 11 12 13 13 13 14 14 15 15 15 16 16 16 15 15 15 16 17 17 17 18 20 21 23 25 26 27 28
7 6 5 5 5 6 7 7 7 9 9 10 10 11 11 12 12 13 14 15 15 15 15 15 14 14 14 14 14 14 14 15 16 16 17 19 20 20 22 23 25 26
8 7 6 6 6 7 8 8 8 8 9 9 9 10 10 10 10 10 11 12 12 13 13 13 13 12 12 13 13 14 14 15 15 16 17 18 18 18 20 20 22 25
8 8 8 7 7 7 6 6 6 7 7 7 8 8 9 9 9 9 10 10 10 11 11 11 11 11 11 12 13 14 14 14 15 15 17 18 19 19 20 21 22 23
7 6 6 5 5 5 5 5 5 5 5 5 6 7 8 8 8 8 8 9 9 10 10 10 10 10 10 10 11 12 13 14 15 16 18 19 20 21 21 21 22 23
6 5 5 4 4 4 4 4 3 2 2 3 3 4 5 5 5 5 6 7 8 9 9 10 10 10 10 11 11 12 13 14 14 15 17 18 19 21 21 21 22 24
7 6 6 6 5 5 4 4 3 2 2 2 2 3 3 4 5 7 7 7 7 8 9 9 9 9 9 10 11 12 14 14 15 15 17 19 20 22 24 24 24 26
9 9 8 8 7 7 6 7 6 6 5 5 6 6 6 7 8 9 10 10 10 10 10 11 11 11 11 10 10 11 12 14 15 16 18 19 21 23 24 24 25 27
10 10 9 9 9 9 9 9 9 8 8 8 8 8 8 9 10 11 12 13 13 13 14 14 14 13 13 12 12 11 12 13 14 15 16 18 20 22 23 24 25 27
11 11 11 11 10 10 11 11 10 10 9 9 10 10 11 12 12 13 13 14 14 15 15 16 16 16 16 16 15 14 14 14 15 16 17 19 20 22 22 23 24 26
13 13 12 12 12 12 12 12 12 12 12 12 12 12 13 13 14 14 14 14 14 14 15 16 16 17 17 17 17 17 17 17 17 18 20 21 22 23 24 25 25 26
15 14 14 14 13 14 14 14 14 13 13 13 13 13 13 13 13 13 13 13 14 14 15 16 16 16 16 17 17 17 18 18 19 21 22 23 24 26 26 26 27 27
16 16 15 15 14 15 15 14 14 13 13 12 12 12 12 12 12 13 13 13 14 15 16 16 17 16 16 17 17 17 18 19 20 21 22 24 26 27 28 28 29 29
17 16 16 15 14 14 14 14 13 12 11 11 11 12 12 12 13 13 14 15 16 16 17 18 19 19 18 18 18 18 19 20 22 23 24 25 28 29 31 31 31 31
16 16 15 14 14 13 13 12 11 11 11 11 11 12 12 13 13 14 15 16 16 17 18 19 20 20 20 20 20 21 22 23 24 25 26 27 29 30 32 33 33 33
15 15 14 14 13 12 11 11 10 10 11 10 11 12 12 13 13 14 15 16 16 17 18 18 19 19 19 20 20 21 22 23 24 26 27 28 29 30 32 33 34 34
14 14 14 13 12 11 10 10 9 9 10 10 11 11 12 12 13 14 15 15 16 17 17 18 19 19 19 19 19 20 21 23 24 26 27 28 29 30 32 33 34 35
13 13 13 12 11 10 9 8 9 9 10 10 11 12 13 14 14 15 15 16 17 18 18 19 19 19 19 19 19 19 20 21 23 24 26 28 29 30 31 32 33 33
13 12 11 10 9 9 8 9 9 10 10 11 12 13 14 15 15 16 17 17 18 18 19 20 20 20 21 20 21 21 21 22 23 24 26 28 29 30 30 31 32 31
11 10 10 9 8 8 9 9 10 11 11 12 13 14 14 15 16 17 18 19 20 20 21 22 22 22 23 23 24 24 24 25 25 26 28 30 31 32 32 31 31 31
9 9 8 8 8 9 10 10 11 12 12 13 14 15 16 17 18 19 19 20 21 21 22 24 24 24 24 26 26 25 26 27 27 28 30 32 34 35 34 33 33 32
8 8 8 8 9 9 10 11 11 12 13 14 14 15 16 17 18 19 19 20 21 22 22 24 26 26 25 27 27 26 26 27 28 29 31 33 35 37 37 36 36 35
8 8 8 8 9 9 10 11 11 12 13 13 14 15 16 17 18 19 20 21 22 23 23 24 27 28 26 26 28 27 26 27 28 29 31 33 35 37 39 39 38 38
7 7 7 8 9 9 10 11 11 12 12 13 14 15 16 17 18 20 22 23 23 24 24 24 26 28 27 26 27 28 27 27 27 27 29 32 33 35 37 39 40 41
Wind_Direction
185 190 196 201 205 210 214 220 226 231 238 247 257 267 276 292 302 298 297 300 297 290 283 276 271 268 269 272 276 276 276 275 273 271 268 265 265 263 262 262 260 261
185 191 196 201 206 211 215 218 223 230 241 250 257 265 267 267 269 272 281 288 290 294 295 294 293 288 280 274 273 274 277 280 280 279 277 274 274 272 271 271 270 269
186 194 200 202 202 207 217 221 223 231 239 245 248 251 254 256 258 261 264 268 272 275 279 285 291 295 296 292 284 276 274 277 279 281 281 281 281 281 281 280 278 276
187 199 207 205 199 204 217 224 230 239 246 254 259 261 263 266 269 271 270 271 271 271 272 274 276 282 290 293 292 286 281 281 282 282 281 282 284 285 285 284 282 280
189 198 205 211 215 219 226 232 238 247 254 261 267 270 273 275 278 281 282 282 282 281 280 279 280 281 279 278 279 281 284 287 289 286 283 284 286 287 287 285 284 284
191 200 207 217 227 235 241 244 249 255 259 263 266 270 276 281 287 289 287 287 288 289 288 287 290 292 288 281 276 277 280 283 285 285 283 283 285 287 287 286 285 285
190 199 209 220 227 232 231 229 239 250 258 267 274 279 283 288 294 296 292 287 286 286 286 284 284 287 291 290 285 283 283 283 283 284 284 285 286 286 286 287 288 287
183 184 181 185 185 187 191 194 209 241 267 288 297 301 304 312 322 326 318 305 299 299 301 299 294 287 283 282 281 282 283 284 284 284 287 288 287 285 283 283 284 284
158 152 147 147 149 151 145 130 117 101 71 37 33 26 12 10 12 11 7 359 347 337 334 331 327 320 307 296 290 286 284 284 283 281 282 283 283 283 284 284 283 281
134 130 131 132 129 125 115 105 96 88 77 64 58 51 43 38 34 30 27 23 20 12 6 1 356 351 344 333 320 307 297 293 290 285 283 283 284 285 286 287 286 284
125 122 122 121 117 111 102 96 89 83 76 68 62 55 49 45 40 36 33 29 26 22 17 13 9 4 358 351 343 334 323 314 310 304 299 296 293 292 292 291 289 288
121 119 119 117 112 105 99 93 87 80 74 67 61 56 52 48 44 39 34 29 25 21 16 13 11 8 4 359 354 346 339 331 324 317 311 307 304 302 300 297 295 294
120 118 117 112 106 101 94 88 83 76 70 65 60 57 53 49 46 41 36 31 26 21 16 12 10 7 2 358 353 347 341 335 328 323 318 315 312 310 308 305 301 299
116 112 108 103 99 94 88 83 79 74 70 66 61 58 54 49 45 41 35 30 25 20 16 12 9 7 1 355 351 345 340 335 330 326 321 318 317 314 312 310 307 304
110 106 104 101 97 92 88 84 80 76 73 69 63 57 51 45 40 33 27 23 19 15 12 9 7 5 0 354 348 343 337 333 328 325 322 319 318 317 316 314 312 311
109 107 106 104 98 93 89 85 81 76 71 63 55 48 40 34 28 22 18 14 11 9 7 6 5 2 358 353 346 341 335 331 328 326 324 321 319 319 319 318 317 315
112 110 107 102 95 90 85 78 71 63 55 48 42 35 29 24 20 17 15 11 9 7 4 4 3 359 356 351 345 340 334 330 328 326 324 323 320 318 317 317 317 315
112 107 101 95 87 81 74 65 58 50 44 39 34 30 24 20 17 15 13 9 6 4 3 3 2 357 353 349 344 339 333 328 325 323 322 321 319 317 316 315 314 314
107 101 94 88 80 74 68 60 53 46 42 36 32 27 20 16 15 13 11 7 3 2 1 1 1 356 353 350 345 339 333 327 324 323 321 320 320 318 316 315 313 313
103 98 92 87 81 75 68 61 53 44 40 34 26 21 15 12 11 8 7 5 1 358 359 0 1 358 354 352 348 343 336 330 326 324 322 321 320 319 317 316 314 312
102 98 94 88 82 76 65 57 48 38 33 28 21 16 12 9 6 4 3 3 0 356 354 357 0 359 356 353 351 347 341 335 331 328 324 323 322 321 320 317 316 314
100 97 92 84 76 66 55 47 40 31 25 21 17 14 11 8 6 4 1 359 359 356 351 352 358 359 357 354 352 349 345 340 336 332 328 326 325 325 323 320 317 315
96 90 81 72 62 52 43 38 33 27 21 16 13 11 11 8 5 4 1 357 356 356 352 350 355 359 357 354 353 350 346 341 337 333 329 326 326 325 323 320 318 316
89 80 70 60 51 43 38 33 28 25 21 16 12 10 10 8 3 360 360 358 356 356 355 351 353 358 358 354 353 351 347 342 337 332 328 326 326 325 323 320 318 317
86 77 66 55 47 40 35 31 27 25 21 16 13 10 7 6 3 358 358 0 358 357 356 354 352 354 356 354 351 349 346 342 336 330 326 325 324 322 321 320 318 317
88 76 62 53 48 41 34 29 26 23 19 16 15 12 8 6 4 359 357 357 357 355 355 354 351 350 352 352 348 345 344 341 337 330 324 323 322 319 317 317 316 316